Location: Pitton
(51.0667°N, 1.7000°W)
Time: 14:11:54
(UTC+00:00)

SL-24 R/B - Pass Details

Date: 17 September 2019
Orbit: 625 x 1075 km, 98.1° (Epoch: 16 October)

Event Time Altitude Azimuth Distance (km) Brightness Sun altitude
Exits shadow 19:58:06 26° 138° (SE) 1,326 5.2 -16.1°
Maximum altitude 20:00:31 56° 69° (ENE) 824 4.4 -16.5°
Drops below altitude 10° 20:05:21 10° 352° (N) 2,281 7.4 -17.1°
Sets 20:07:49 0° 349° (N) 3,280 8.3 -17.5°
